This is the latest recevied weather packets stored in our database for station/object NK7E-1. If no packets are shown the sender has not sent any weather packets the latest 10 day(s).
| Time | Temp. | Humidity | Pressure | Rain* | Wind** | Luminosity | Snow |
|---|---|---|---|---|---|---|---|
| 1777645799 | 17.22° C | 63% | 1013.8 hPa | 0 mm | - | - | - |
| 1777645199 | 17.22° C | 62% | 1013.8 hPa | 0 mm | - | - | - |
| 1777644599 | 16.67° C | 63% | 1013.8 hPa | 0 mm | - | - | - |
| 1777644001 | 16.67° C | 63% | 1013.7 hPa | 0 mm | - | - | - |
| 1777643398 | 16.67° C | 63% | 1013.6 hPa | 0 mm | - | - | - |
| 1777642798 | 16.11° C | 64% | 1013.5 hPa | 0 mm | - | - | - |
| 1777642199 | 16.11° C | 65% | 1013.3 hPa | 0 mm | - | - | - |
| 1777641598 | 15.56° C | 69% | 1013.3 hPa | 0 mm | - | - | - |
| 1777640999 | 14.44° C | 73% | 1013.2 hPa | 0 mm | - | - | - |
| 1777640401 | 13.89° C | 74% | 1013.1 hPa | 0 mm | - | - | - |
| 1777639800 | 13.33° C | 75% | 1013 hPa | 0 mm | - | - | - |
| 1777639199 | 13.33° C | 76% | 1012.8 hPa | 0 mm | - | - | - |
| 1777638598 | 13.89° C | 75% | 1012.7 hPa | 0 mm | - | - | - |
| 1777637999 | 13.89° C | 75% | 1012.8 hPa | 0 mm | - | - | - |
| 1777637398 | 13.33° C | 76% | 1012.6 hPa | 0 mm | - | - | - |
| 1777636800 | 13.33° C | 76% | 1012.5 hPa | 0 mm | - | - | - |
| 1777636198 | 13.33° C | 75% | 1012.4 hPa | 0 mm | - | - | - |
| 1777635600 | 13.89° C | 74% | 1012.3 hPa | 0 mm | - | - | - |
| 1777634999 | 13.89° C | 74% | 1012.4 hPa | 0 mm | - | - | - |
| 1777634398 | 13.89° C | 74% | 1012.4 hPa | 0 mm | - | - | - |
| 1777633799 | 13.89° C | 73% | 1012.3 hPa | 0 mm | - | - | - |
| 1777633200 | 14.44° C | 73% | 1012.2 hPa | 0 mm | - | - | - |
| 1777632598 | 13.89° C | 73% | 1012.3 hPa | 0 mm | - | - | - |
| 1777631999 | 14.44° C | 71% | 1012.1 hPa | 0 mm | - | - | - |
| 1777631400 | 14.44° C | 70% | 1012.1 hPa | 0 mm | - | - | - |
* Rain latest hour (hover to see other rain measurements)
** Current wind speed in m/s (hover to see current wind gust speed)